Location: Crocus Hill
(18.2167°N, 63.0667°W)
Time: 15:21:50
(UTC+00:00)

FENGYUN 3A - Pass Details

Date: 26 January 2020
Orbit: 824 x 835 km, 98.4° (Epoch: 26 February)

Event Time Altitude Azimuth Distance (km) Brightness Sun altitude
Rises 09:53:43 0° 357° (N) 3,367 6.6 -12.8°
Reaches altitude 10° 09:56:16 10° 348° (NNW) 2,435 5.8 -12.2°
Maximum altitude 10:01:01 32° 286° (WNW) 1,382 4.3 -11.2°
Drops below altitude 10° 10:05:46 10° 224° (SW) 2,436 5.8 -10.1°
Sets 10:08:21 0° 214° (SW) 3,369 6.6 -9.5°
